| time (UTC) | temp C | wind direction | speed KPH | gust KPH | rain 1hr cm | rain 24hr cm | rain mn cm | humidity % | barometer mb |
| 20260507051124 | 16 | 305 | 3.2 | 4.8 | 0.00 | 0.10 | 0.00 | 76 | 1010.0 |
| 20260507045622 | 16 | 339 | 3.2 | 4.8 | 0.00 | 0.10 | 0.00 | 75 | 1010.2 |
| 20260507044123 | 17 | 9 | 3.2 | 4.8 | 0.00 | 0.10 | 0.00 | 74 | 1009.7 |
| 20260507042623 | 17 | 354 | 1.6 | 4.8 | 0.00 | 0.10 | 0.00 | 77 | 1009.5 |
| 20260507041126 | 17 | 0 | 1.6 | 3.2 | 0.00 | 0.10 | 0.00 | 76 | 1009.4 |
| 20260507035624 | 18 | 333 | 1.6 | 4.8 | 0.00 | 0.10 | 0.10 | 76 | 1009.7 |
| 20260507034124 | 18 | 303 | 1.6 | 4.8 | 0.00 | 0.10 | 0.10 | 76 | 1009.6 |
| 20260507032623 | 18 | 112 | 0.0 | 1.6 | 0.00 | 0.10 | 0.10 | 79 | 1009.2 |
| 20260507031123 | 18 | 232 | 0.0 | 1.6 | 0.00 | 0.10 | 0.10 | 81 | 1009.1 |
| 20260507025622 | 18 | 232 | 1.6 | 1.6 | 0.00 | 0.10 | 0.10 | 81 | 1009.0 |
| 20260507024123 | 18 | 232 | 0.0 | 0.0 | 0.00 | 0.10 | 0.10 | 82 | 1008.7 |
| 20260507022625 | 18 | 232 | 1.6 | 3.2 | 0.00 | 0.10 | 0.10 | 81 | 1008.9 |
| 20260507014124 | 18 | 232 | 1.6 | 4.8 | 0.00 | 0.10 | 0.10 | 81 | 1009.1 |
| 20260507012623 | 18 | 232 | 0.0 | 0.0 | 0.00 | 0.10 | 0.10 | 81 | 1009.0 |
| 20260507011122 | 18 | 232 | 1.6 | 3.2 | 0.00 | 0.10 | 0.10 | 80 | 1008.9 |
| 20260507005622 | 18 | 211 | 1.6 | 1.6 | 0.00 | 0.10 | 0.10 | 80 | 1008.9 |
| 20260507004123 | 18 | 210 | 1.6 | 3.2 | 0.00 | 0.10 | 0.10 | 80 | 1008.6 |
| 20260507002623 | 19 | 210 | 1.6 | 4.8 | 0.00 | 0.10 | 0.10 | 80 | 1008.7 |
| 20260507001124 | 19 | 211 | 3.2 | 4.8 | 0.00 | 0.10 | 0.10 | 79 | 1008.8 |
| 20260506235624 | 19 | 209 | 1.6 | 4.8 | 0.00 | 0.10 | 0.10 | 79 | 1008.4 |
| 20260506234123 | 20 | 213 | 4.8 | 8.0 | 0.00 | 0.10 | 0.10 | 78 | 1008.3 |
| 20260506232622 | 20 | 215 | 1.6 | 3.2 | 0.00 | 0.10 | 0.10 | 77 | 1008.1 |
| 20260506231125 | 20 | 247 | 0.0 | 0.0 | 0.00 | 0.10 | 0.10 | 77 | 1007.9 |
| 20260506225623 | 20 | 220 | 3.2 | 4.8 | 0.00 | 0.10 | 0.10 | 76 | 1008.2 |
| 20260506224123 | 21 | 228 | 3.2 | 4.8 | 0.00 | 0.10 | 0.10 | 74 | 1008.3 |
| 20260506222625 | 21 | 225 | 3.2 | 8.0 | 0.00 | 0.10 | 0.10 | 73 | 1008.2 |
| 20260506221123 | 21 | 234 | 3.2 | 9.7 | 0.00 | 0.10 | 0.10 | 74 | 1008.1 |
| 20260506215623 | 21 | 226 | 4.8 | 4.8 | 0.00 | 0.10 | 0.10 | 74 | 1008.0 |
| 20260506214123 | 21 | 202 | 1.6 | 8.0 | 0.00 | 0.10 | 0.10 | 72 | 1008.0 |
| 20260506212622 | 21 | 224 | 3.2 | 8.0 | 0.00 | 0.10 | 0.10 | 73 | 1007.9 |
| 20260506211124 | 21 | 163 | 3.2 | 8.0 | 0.00 | 0.10 | 0.10 | 74 | 1007.9 |
| 20260506205628 | 21 | 224 | 4.8 | 8.0 | 0.00 | 0.10 | 0.10 | 72 | 1007.8 |
| 20260506204124 | 22 | 222 | 3.2 | 4.8 | 0.00 | 0.10 | 0.10 | 71 | 1007.8 |
| 20260506202623 | 22 | 248 | 4.8 | 9.7 | 0.00 | 0.10 | 0.10 | 70 | 1007.6 |
| 20260506201125 | 21 | 213 | 4.8 | 20.9 | 0.00 | 0.10 | 0.10 | 72 | 1007.7 |
| 20260506195624 | 22 | 271 | 3.2 | 4.8 | 0.00 | 0.10 | 0.10 | 71 | 1007.8 |
| 20260506194125 | 21 | 270 | 4.8 | 9.7 | 0.00 | 0.10 | 0.10 | 74 | 1007.8 |
| 20260506192625 | 21 | 216 | 4.8 | 14.5 | 0.00 | 0.10 | 0.10 | 75 | 1008.1 |
| 20260506191124 | 20 | 207 | 3.2 | 4.8 | 0.00 | 0.10 | 0.10 | 76 | 1008.2 |
| 20260506185623 | 19 | 212 | 8.0 | 9.7 | 0.00 | 0.10 | 0.10 | 76 | 1008.4 |
| 20260506184124 | 19 | 220 | 11.3 | 11.3 | 0.00 | 0.10 | 0.10 | 77 | 1008.4 |
| 20260506182624 | 19 | 210 | 4.8 | 8.0 | 0.00 | 0.10 | 0.10 | 77 | 1008.7 |
| 20260506181123 | 18 | 244 | 8.0 | 14.5 | 0.00 | 0.10 | 0.10 | 78 | 1008.7 |
| 20260506175623 | 18 | 164 | 4.8 | 4.8 | 0.00 | 0.10 | 0.10 | 80 | 1008.6 |
| 20260506174124 | 18 | 178 | 8.0 | 19.3 | 0.00 | 0.10 | 0.10 | 81 | 1008.9 |
| 20260506172624 | 18 | 209 | 8.0 | 14.5 | 0.00 | 0.10 | 0.10 | 81 | 1008.7 |
| 20260506171124 | 18 | 218 | 3.2 | 4.8 | 0.00 | 0.10 | 0.10 | 81 | 1008.9 |
| 20260506165624 | 17 | 220 | 3.2 | 4.8 | 0.00 | 0.10 | 0.10 | 84 | 1008.9 |
| 20260506164123 | 17 | 219 | 4.8 | 11.3 | 0.03 | 0.10 | 0.10 | 86 | 1008.9 |
| 20260506162627 | 17 | 212 | 1.6 | 8.0 | 0.08 | 0.10 | 0.10 | 85 | 1009.1 |
| 20260506161125 | 17 | 150 | 3.2 | 4.8 | 0.08 | 0.10 | 0.10 | 86 | 1009.4 |
| 20260506155624 | 17 | 205 | 1.6 | 9.7 | 0.10 | 0.10 | 0.10 | 87 | 1009.2 |
| 20260506154123 | 17 | 162 | 3.2 | 9.7 | 0.08 | 0.08 | 0.08 | 85 | 1010.1 |
| 20260506152624 | 17 | 162 | 3.2 | 4.8 | 0.03 | 0.03 | 0.03 | 83 | 1010.5 |
| 20260506151125 | 17 | 221 | 3.2 | 4.8 | 0.03 | 0.03 | 0.03 | 83 | 1010.3 |
| 20260506145622 | 17 | 216 | 3.2 | 4.8 | 0.00 | 0.00 | 0.00 | 81 | 1010.3 |
| 20260506142624 | 18 | 212 | 8.0 | 9.7 | 0.00 | 0.00 | 0.00 | 76 | 1010.3 |
| 20260506141123 | 19 | 215 | 4.8 | 12.9 | 0.00 | 0.00 | 0.00 | 74 | 1010.5 |
| 20260506135622 | 18 | 217 | 8.0 | 11.3 | 0.00 | 0.00 | 0.00 | 74 | 1010.4 |
| 20260506134126 | 19 | 210 | 9.7 | 19.3 | 0.00 | 0.00 | 0.00 | 71 | 1010.3 |
| 20260506132625 | 20 | 215 | 9.7 | 12.9 | 0.00 | 0.00 | 0.00 | 71 | 1009.9 |
| 20260506131124 | 19 | 197 | 4.8 | 19.3 | 0.00 | 0.00 | 0.00 | 71 | 1009.9 |
| 20260506125623 | 19 | 209 | 9.7 | 22.5 | 0.00 | 0.00 | 0.00 | 72 | 1010.0 |
| 20260506122625 | 19 | 223 | 8.0 | 14.5 | 0.00 | 0.00 | 0.00 | 72 | 1010.3 |
| 20260506121123 | 19 | 216 | 4.8 | 9.7 | 0.00 | 0.00 | 0.00 | 72 | 1010.1 |
| 20260506115624 | 19 | 208 | 8.0 | 9.7 | 0.00 | 0.00 | 0.00 | 73 | 1010.0 |
| 20260506114125 | 19 | 191 | 9.7 | 19.3 | 0.00 | 0.00 | 0.00 | 74 | 1010.0 |
| 20260506112624 | 18 | 211 | 4.8 | 16.1 | 0.00 | 0.00 | 0.00 | 74 | 1009.8 |
| 20260506111126 | 18 | 202 | 8.0 | 9.7 | 0.00 | 0.00 | 0.00 | 75 | 1009.7 |
| 20260506105623 | 18 | 167 | 8.0 | 11.3 | 0.00 | 0.00 | 0.00 | 76 | 1009.7 |
| 20260506104124 | 18 | 238 | 3.2 | 8.0 | 0.00 | 0.00 | 0.00 | 76 | 1009.7 |
| 20260506102623 | 18 | 194 | 4.8 | 4.8 | 0.00 | 0.00 | 0.00 | 75 | 1009.6 |
| 20260506101124 | 18 | 111 | 1.6 | 3.2 | 0.00 | 0.00 | 0.00 | 75 | 1009.7 |
| 20260506095624 | 18 | 196 | 3.2 | 9.7 | 0.00 | 0.00 | 0.00 | 76 | 1009.7 |
| 20260506094123 | 18 | 219 | 8.0 | 8.0 | 0.00 | 0.00 | 0.00 | 75 | 1009.6 |
| 20260506092623 | 18 | 198 | 3.2 | 4.8 | 0.00 | 0.00 | 0.00 | 75 | 1009.7 |
| 20260506091124 | 18 | 214 | 4.8 | 9.7 | 0.00 | 0.00 | 0.00 | 75 | 1009.9 |
| 20260506085623 | 18 | 221 | 4.8 | 8.0 | 0.00 | 0.00 | 0.00 | 76 | 1009.8 |
| 20260506084124 | 18 | 215 | 4.8 | 8.0 | 0.00 | 0.00 | 0.00 | 76 | 1009.7 |
| 20260506082623 | 18 | 181 | 3.2 | 4.8 | 0.00 | 0.00 | 0.00 | 75 | 1009.6 |
| 20260506081123 | 18 | 151 | 3.2 | 12.9 | 0.00 | 0.00 | 0.00 | 74 | 1009.7 |
| 20260506072625 | 20 | 195 | 3.2 | 4.8 | 0.00 | 0.00 | 0.00 | 71 | 1010.0 |
| 20260506071124 | 20 | 207 | 8.0 | 14.5 | 0.00 | 0.00 | 0.00 | 71 | 1010.0 |
| 20260506061124 | 20 | 193 | 4.8 | 11.3 | 0.00 | 0.00 | 0.00 | 69 | 1010.1 |